Location: Medlow Airstrip Trail, Medlow Bath NSW 2780, Australia
(33.6682°S, 150.3233°E)
Time: 11:16:19
(UTC+10:00)

Vanguard 3 - Visible Passes

Search period start: 21 September 2019 00:00
Search period end: 01 October 2019 00:00
Orbit: 508 x 3263 km, 33.4° (Epoch: 20 September)

Date Brightness Start Highest point End Pass type
(mag) Time Alt. Az. Time Alt. Az. Time Alt. Az.
21 Sep 8.0 18:53:50 10° NW 18:59:51 32° NNE 19:02:01 22° ENE visible
22 Sep 7.2 19:51:53 10° WNW 19:57:07 52° NNW 19:57:07 52° NNW visible
23 Sep 7.9 18:36:45 10° NW 18:43:59 41° NNE 18:47:36 16° E visible
23 Sep 9.1 20:50:28 10° W 20:52:12 19° W 20:52:12 19° W visible
24 Sep 6.8 19:35:17 10° WNW 19:41:57 67° NNE 19:42:38 59° ENE visible
25 Sep 7.9 18:19:38 10° NW 18:28:04 51° NNE 18:33:04 10° E visible
25 Sep 8.3 20:34:09 10° W 20:37:39 34° W 20:37:39 34° W visible
26 Sep 7.1 19:18:35 10° WNW 19:26:06 76° N 19:28:03 38° E visible
27 Sep 7.4 20:17:44 10° W 20:23:00 57° W 20:23:00 57° W visible
28 Sep 7.4 19:01:48 10° WNW 19:10:13 82° N 19:13:21 25° E visible
28 Sep 9.5 21:16:38 10° W 21:17:56 16° W 21:17:56 16° W visible
29 Sep 6.9 20:01:11 10° W 20:08:16 88° N 20:08:16 88° N visible
30 Sep 7.6 18:44:56 10° W 18:54:17 86° N 18:58:36 17° E visible
30 Sep 8.9 21:00:17 10° W 21:03:10 26° W 21:03:10 26° W visible
